Wind From: 10-12-2017 19:04 Until: 11-12-2017 16:00 warning for: Wind Level: Orange info button

Power and phone distribution networks may be disrupted for relatively long periods., Roofs and chimneys can be damaged. , Tree branches may break. , Vehicles can be deported. , Traffic may be disrupted, particularly on secondary roads in forest areas. Limit your trips. , Limit your speed in highway driving, especially if you drive a vehicle or hitch sensitive to wind. , Do not go for walks in forests or along the coast., In town, be vigilant against possible falling objects., Do not work on roofs and do not touch any electrical line fallen on the ground., Store or secure sensitive objects to wind or likely to be damaged., Always install power generators outside buildings. 


Meteo18 Weather Cam more information Meteo18 Weather Cam


Thunder radar more information blitzortung!


Rain radar more information rain snow radar


Visit our other weather sites:

Template documentation
and downloads

And another site



Weather Underground History page Text

Daily Summary for May 31, 2016 Units:  Metric    English   Both
« Previous Day
Next Day »
Daily Weekly Monthly Yearly Custom
  High: Low: Average:
Temperature: 13.4 °C 11.8 °C 12.5 °C
Dew Point: 12.5 °C 11.2 °C 11.8 °C
Humidity: 97 % 93 % 95 %
Wind Speed: 4.8 km/h 0.0 km/h 0.5 km/h
Wind Gust: 9.7 km/h - -
Wind:- - SSW
Pressure: 1013.4 hPa 1008.7 hPa -
Precipitation: 31.2 mm    
Historical Graphs
 
 
Tabular Data for May 31, 2016
Time Temperature Dew Point Pressure Wind Wind Speed Wind Gust Humidity Rainfall Rate (Hourly)
00:02 12.3 °C 11.7 °C 1010.4 hPa SW 1.6 km/h 4.8 km/h 96 % 0.5 mm
00:12 12.3 °C 11.7 °C 1010.4 hPa Calm   4.8 km/h 96 % 0.3 mm
00:17 12.3 °C 11.7 °C 1010.4 hPa Calm   4.8 km/h 96 % 0.3 mm
00:22 12.3 °C 11.7 °C 1010.4 hPa Calm   4.8 km/h 96 % 0.3 mm
00:32 12.3 °C 11.7 °C 1010.4 hPa Calm   4.8 km/h 96 % 0.3 mm
00:42 12.2 °C 11.6 °C 1010.4 hPa Calm   6.4 km/h 96 % 0.5 mm
00:47 12.2 °C 11.6 °C 1010.4 hPa WSW 3.2 km/h 6.4 km/h 96 % 0.5 mm
00:52 12.2 °C 11.6 °C 1010.4 hPa Calm   6.4 km/h 96 % 0.5 mm
00:57 12.2 °C 11.6 °C 1010.0 hPa Calm   6.4 km/h 96 % 0.5 mm
01:02 12.2 °C 11.6 °C 1010.4 hPa Calm   6.4 km/h 96 % 0.5 mm
01:07 12.2 °C 11.6 °C 1010.0 hPa SW 3.2 km/h 6.4 km/h 96 % 0.8 mm
01:12 12.1 °C 11.5 °C 1010.0 hPa SSW 1.6 km/h 6.4 km/h 96 % 0.8 mm
01:17 12.1 °C 11.5 °C 1010.0 hPa Calm   6.4 km/h 96 % 0.8 mm
01:22 12.1 °C 11.5 °C 1010.0 hPa SW 3.2 km/h 6.4 km/h 96 % 0.8 mm
01:32 12.1 °C 11.5 °C 1010.0 hPa Calm   4.8 km/h 96 % 0.5 mm
01:37 12.1 °C 11.5 °C 1010.0 hPa West 1.6 km/h 4.8 km/h 96 % 0.8 mm
01:42 12.1 °C 11.5 °C 1010.0 hPa Calm   4.8 km/h 96 % 0.5 mm
01:47 12.1 °C 11.5 °C 1010.0 hPa SW 1.6 km/h 4.8 km/h 96 % 0.8 mm
01:52 12.0 °C 11.4 °C 1010.0 hPa Calm   8.0 km/h 96 % 1.0 mm
01:57 12.0 °C 11.4 °C 1009.7 hPa Calm   8.0 km/h 96 % 1.0 mm
02:02 12.0 °C 11.4 °C 1009.7 hPa SW 1.6 km/h 8.0 km/h 96 % 1.3 mm
02:07 12.0 °C 11.4 °C 1009.7 hPa WSW 1.6 km/h 6.4 km/h 96 % 1.3 mm
02:12 12.0 °C 11.4 °C 1009.7 hPa SW 1.6 km/h 4.8 km/h 96 % 1.3 mm
02:17 12.0 °C 11.4 °C 1009.7 hPa Calm   4.8 km/h 96 % 1.3 mm
02:22 12.0 °C 11.4 °C 1009.7 hPa Calm   6.4 km/h 96 % 1.5 mm
02:32 12.0 °C 11.4 °C 1009.7 hPa SW 3.2 km/h 6.4 km/h 96 % 1.5 mm
02:37 12.0 °C 11.4 °C 1009.4 hPa West 1.6 km/h 6.4 km/h 96 % 1.3 mm
02:42 12.0 °C 11.4 °C 1009.4 hPa WSW 1.6 km/h 6.4 km/h 96 % 1.5 mm
02:47 12.0 °C 11.4 °C 1009.4 hPa SW 1.6 km/h 6.4 km/h 96 % 1.3 mm
02:57 12.0 °C 11.4 °C 1009.4 hPa WSW 3.2 km/h 8.0 km/h 96 % 0.8 mm
03:02 12.0 °C 11.4 °C 1009.4 hPa Calm   8.0 km/h 96 % 0.8 mm
03:07 12.0 °C 11.4 °C 1009.4 hPa Calm   8.0 km/h 96 % 0.8 mm
03:12 11.9 °C 11.3 °C 1009.4 hPa SW 3.2 km/h 8.0 km/h 96 % 0.8 mm
03:17 11.9 °C 11.3 °C 1009.4 hPa Calm   6.4 km/h 96 % 0.8 mm
03:22 12.0 °C 11.4 °C 1009.4 hPa SSW 4.8 km/h 6.4 km/h 96 % 0.8 mm
03:32 11.9 °C 11.3 °C 1009.4 hPa West 1.6 km/h 6.4 km/h 96 % 1.0 mm
03:37 11.9 °C 11.3 °C 1009.4 hPa SW 1.6 km/h 6.4 km/h 96 % 1.3 mm
03:42 11.9 °C 11.3 °C 1009.0 hPa SW 1.6 km/h 6.4 km/h 96 % 1.0 mm
03:47 11.9 °C 11.3 °C 1009.0 hPa Calm   6.4 km/h 96 % 1.3 mm
03:52 12.0 °C 11.4 °C 1009.0 hPa SW 1.6 km/h 6.4 km/h 96 % 1.5 mm
03:57 12.0 °C 11.4 °C 1009.0 hPa Calm   4.8 km/h 96 % 1.5 mm
04:02 11.9 °C 11.3 °C 1009.0 hPa WSW 1.6 km/h 4.8 km/h 96 % 1.5 mm
04:12 11.9 °C 11.3 °C 1009.0 hPa SW 1.6 km/h 6.4 km/h 96 % 1.5 mm
04:17 11.9 °C 11.4 °C 1009.0 hPa SW 1.6 km/h 6.4 km/h 97 % 1.5 mm
04:22 11.9 °C 11.4 °C 1009.0 hPa SE 1.6 km/h 6.4 km/h 97 % 1.5 mm
04:32 12.0 °C 11.5 °C 1009.0 hPa Calm   6.4 km/h 97 % 1.5 mm
04:37 12.0 °C 11.5 °C 1009.0 hPa SW 3.2 km/h 4.8 km/h 97 % 1.5 mm
04:42 12.0 °C 11.5 °C 1009.0 hPa Calm   4.8 km/h 97 % 1.8 mm
04:47 12.0 °C 11.5 °C 1009.0 hPa Calm   4.8 km/h 97 % 1.8 mm
04:52 11.9 °C 11.4 °C 1009.0 hPa SW 1.6 km/h 4.8 km/h 97 % 1.8 mm
05:02 11.9 °C 11.4 °C 1009.0 hPa Calm   3.2 km/h 97 % 1.8 mm
05:12 12.0 °C 11.5 °C 1009.0 hPa Calm   3.2 km/h 97 % 1.8 mm
05:17 12.0 °C 11.5 °C 1009.0 hPa Calm   4.8 km/h 97 % 1.8 mm
05:22 12.0 °C 11.5 °C 1009.0 hPa Calm   4.8 km/h 97 % 1.8 mm
05:32 12.0 °C 11.5 °C 1009.0 hPa Calm   3.2 km/h 97 % 1.8 mm
05:42 12.0 °C 11.5 °C 1009.0 hPa Calm   3.2 km/h 97 % 2.0 mm
05:52 12.0 °C 11.5 °C 1008.7 hPa Calm   3.2 km/h 97 % 1.5 mm
06:02 11.9 °C 11.4 °C 1008.7 hPa Calm   3.2 km/h 97 % 1.5 mm
06:12 11.9 °C 11.3 °C 1008.7 hPa Calm   4.8 km/h 96 % 1.0 mm
06:17 11.8 °C 11.2 °C 1008.7 hPa Calm   6.4 km/h 96 % 1.0 mm
06:22 11.8 °C 11.2 °C 1008.7 hPa SW 1.6 km/h 6.4 km/h 96 % 1.0 mm
06:32 11.8 °C 11.2 °C 1009.0 hPa Calm   4.8 km/h 96 % 1.0 mm
06:42 11.8 °C 11.2 °C 1009.0 hPa Calm   3.2 km/h 96 % 1.0 mm
06:52 11.8 °C 11.2 °C 1009.0 hPa Calm   3.2 km/h 96 % 1.5 mm
07:02 11.8 °C 11.2 °C 1009.0 hPa WSW 1.6 km/h 4.8 km/h 96 % 1.8 mm
07:12 11.8 °C 11.2 °C 1009.0 hPa Calm   4.8 km/h 96 % 2.0 mm
07:17 11.8 °C 11.2 °C 1008.7 hPa South 3.2 km/h 4.8 km/h 96 % 2.5 mm
07:22 11.8 °C 11.2 °C 1008.7 hPa Calm   4.8 km/h 96 % 2.5 mm
07:32 11.8 °C 11.2 °C 1009.0 hPa Calm   9.7 km/h 96 % 2.5 mm
07:42 11.8 °C 11.2 °C 1009.0 hPa Calm   1.6 km/h 96 % 3.0 mm
07:47 11.8 °C 11.2 °C 1009.0 hPa Calm   1.6 km/h 96 % 3.3 mm
07:52 11.8 °C 11.2 °C 1009.0 hPa Calm   1.6 km/h 96 % 3.3 mm
08:02 11.8 °C 11.2 °C 1009.0 hPa SW 3.2 km/h 4.8 km/h 96 % 3.3 mm
08:17 11.9 °C 11.3 °C 1009.0 hPa Calm   4.8 km/h 96 % 3.3 mm
08:22 11.9 °C 11.3 °C 1009.0 hPa Calm   4.8 km/h 96 % 3.3 mm
08:32 11.9 °C 11.3 °C 1009.0 hPa Calm   3.2 km/h 96 % 3.3 mm
08:42 11.9 °C 11.3 °C 1009.0 hPa Calm   4.8 km/h 96 % 3.0 mm
08:52 11.9 °C 11.3 °C 1009.0 hPa Calm   3.2 km/h 96 % 2.8 mm
08:57 11.9 °C 11.3 °C 1009.0 hPa Calm   4.8 km/h 96 % 2.8 mm
09:02 12.0 °C 11.4 °C 1009.4 hPa Calm   4.8 km/h 96 % 2.8 mm
09:07 12.1 °C 11.5 °C 1009.4 hPa Calm   1.6 km/h 96 % 2.5 mm
09:12 12.1 °C 11.5 °C 1009.4 hPa Calm   1.6 km/h 96 % 2.5 mm
09:17 12.1 °C 11.5 °C 1009.4 hPa Calm   4.8 km/h 96 % 2.5 mm
09:22 12.2 °C 11.6 °C 1009.4 hPa Calm   4.8 km/h 96 % 2.5 mm
09:32 12.2 °C 11.6 °C 1009.4 hPa Calm   3.2 km/h 96 % 2.3 mm
09:42 12.2 °C 11.4 °C 1009.4 hPa Calm   4.8 km/h 95 % 2.3 mm
09:47 12.2 °C 11.6 °C 1009.4 hPa Calm   6.4 km/h 96 % 2.3 mm
09:52 12.3 °C 11.7 °C 1009.4 hPa Calm   6.4 km/h 96 % 2.3 mm
09:57 12.3 °C 11.7 °C 1009.4 hPa SW 1.6 km/h 4.8 km/h 96 % 2.3 mm
10:07 12.3 °C 11.7 °C 1009.4 hPa Calm   4.8 km/h 96 % 2.0 mm
10:12 12.4 °C 11.6 °C 1009.4 hPa WSW 1.6 km/h 4.8 km/h 95 % 2.0 mm
10:17 12.4 °C 11.8 °C 1009.4 hPa Calm   4.8 km/h 96 % 2.0 mm
10:22 12.4 °C 11.6 °C 1009.4 hPa Calm   4.8 km/h 95 % 1.8 mm
10:27 12.4 °C 11.6 °C 1009.4 hPa Calm   6.4 km/h 95 % 1.8 mm
10:32 12.5 °C 11.7 °C 1009.4 hPa Calm   6.4 km/h 95 % 1.5 mm
10:37 12.5 °C 11.7 °C 1009.4 hPa Calm   8.0 km/h 95 % 1.5 mm
10:42 12.6 °C 11.8 °C 1009.4 hPa ESE 1.6 km/h 4.8 km/h 95 % 1.5 mm
10:47 12.4 °C 11.5 °C 1009.4 hPa Calm   9.7 km/h 94 % 1.3 mm
10:52 12.5 °C 11.7 °C 1009.4 hPa Calm   9.7 km/h 95 % 1.3 mm
10:57 12.6 °C 11.8 °C 1009.4 hPa Calm   9.7 km/h 95 % 1.3 mm
11:02 12.6 °C 11.8 °C 1009.4 hPa Calm   9.7 km/h 95 % 1.0 mm
11:07 12.7 °C 11.9 °C 1009.4 hPa Calm   3.2 km/h 95 % 1.0 mm
11:12 12.8 °C 12.0 °C 1009.4 hPa Calm   3.2 km/h 95 % 1.0 mm
11:17 12.9 °C 12.1 °C 1009.4 hPa Calm   3.2 km/h 95 % 0.8 mm
11:22 13.0 °C 12.2 °C 1009.4 hPa Calm   3.2 km/h 95 % 0.8 mm
11:27 13.1 °C 12.3 °C 1009.7 hPa SE 1.6 km/h 3.2 km/h 95 % 0.8 mm
11:32 13.0 °C 12.1 °C 1009.7 hPa Calm   3.2 km/h 94 % 0.8 mm
11:37 13.1 °C 12.2 °C 1009.7 hPa SSW 1.6 km/h 3.2 km/h 94 % 0.8 mm
11:42 13.3 °C 12.5 °C 1009.7 hPa Calm   3.2 km/h 95 % 0.5 mm
11:47 13.4 °C 12.5 °C 1009.7 hPa Calm   4.8 km/h 94 % 0.5 mm
11:52 13.4 °C 12.3 °C 1009.7 hPa Calm   4.8 km/h 93 % 0.5 mm
11:57 13.4 °C 12.5 °C 1009.7 hPa Calm   4.8 km/h 94 % 0.5 mm
12:02 13.3 °C 12.2 °C 1009.7 hPa Calm   4.8 km/h 93 % 0.5 mm
12:07 13.2 °C 12.1 °C 1009.7 hPa Calm   4.8 km/h 93 % 0.5 mm
12:12 13.2 °C 12.1 °C 1010.0 hPa Calm   4.8 km/h 93 % 0.5 mm
12:17 13.1 °C 12.0 °C 1010.0 hPa Calm   4.8 km/h 93 % 0.5 mm
12:22 13.2 °C 12.3 °C 1010.0 hPa Calm   4.8 km/h 94 % 0.5 mm
12:27 13.2 °C 12.1 °C 1010.0 hPa Calm   4.8 km/h 93 % 0.5 mm
12:32 13.1 °C 12.2 °C 1010.0 hPa Calm   9.7 km/h 94 % 0.3 mm
12:42 13.2 °C 12.3 °C 1010.0 hPa Calm   9.7 km/h 94 % 0.3 mm
12:47 13.3 °C 12.2 °C 1010.0 hPa SW 1.6 km/h 4.8 km/h 93 % 0.5 mm
12:52 13.3 °C 12.4 °C 1010.0 hPa South 3.2 km/h 4.8 km/h 94 % 0.5 mm
12:57 13.3 °C 12.4 °C 1010.0 hPa East 4.8 km/h 4.8 km/h 94 % 0.5 mm
13:02 13.2 °C 12.1 °C 1010.0 hPa SW 3.2 km/h 4.8 km/h 93 % 0.5 mm
13:07 13.2 °C 12.1 °C 1010.0 hPa Calm   6.4 km/h 93 % 0.5 mm
13:12 13.1 °C 12.0 °C 1010.0 hPa Calm   6.4 km/h 93 % 0.3 mm
13:17 13.1 °C 12.0 °C 1010.0 hPa Calm   6.4 km/h 93 % 0.3 mm
13:22 13.1 °C 12.0 °C 1010.0 hPa Calm   4.8 km/h 93 % 0.3 mm
13:32 13.0 °C 11.9 °C 1010.0 hPa Calm   8.0 km/h 93 % 0.5 mm
13:37 13.0 °C 11.9 °C 1010.0 hPa Calm   8.0 km/h 93 % 0.5 mm
13:42 13.1 °C 12.2 °C 1010.4 hPa Calm   8.0 km/h 94 % 0.3 mm
13:47 13.2 °C 12.3 °C 1010.0 hPa Calm   6.4 km/h 94 % 0.5 mm
13:52 13.2 °C 12.3 °C 1010.4 hPa Calm   6.4 km/h 94 % 0.5 mm
13:57 13.2 °C 12.3 °C 1010.4 hPa Calm   3.2 km/h 94 % 0.5 mm
14:02 13.2 °C 12.3 °C 1010.4 hPa Calm   3.2 km/h 94 % 0.8 mm
14:07 13.3 °C 12.5 °C 1010.4 hPa Calm   3.2 km/h 95 % 0.8 mm
14:12 13.3 °C 12.4 °C 1010.4 hPa Calm   3.2 km/h 94 % 0.8 mm
14:17 13.3 °C 12.4 °C 1010.4 hPa Calm   6.4 km/h 94 % 1.0 mm
14:22 13.3 °C 12.4 °C 1010.4 hPa Calm   6.4 km/h 94 % 0.8 mm
14:27 13.2 °C 12.3 °C 1010.4 hPa Calm   6.4 km/h 94 % 1.0 mm
14:32 13.2 °C 12.3 °C 1010.4 hPa Calm   6.4 km/h 94 % 1.3 mm
14:37 13.2 °C 12.3 °C 1010.4 hPa Calm   4.8 km/h 94 % 1.3 mm
14:42 13.3 °C 12.4 °C 1010.4 hPa Calm   4.8 km/h 94 % 1.5 mm
14:47 13.2 °C 12.3 °C 1010.4 hPa Calm   4.8 km/h 94 % 1.5 mm
14:57 13.1 °C 12.2 °C 1010.4 hPa West 1.6 km/h 4.8 km/h 94 % 2.0 mm
15:02 13.1 °C 12.2 °C 1010.7 hPa SSW 1.6 km/h 4.8 km/h 94 % 2.0 mm
15:07 13.0 °C 12.1 °C 1010.7 hPa SSE 1.6 km/h 4.8 km/h 94 % 2.3 mm
15:12 13.0 °C 12.1 °C 1010.7 hPa Calm   4.8 km/h 94 % 2.5 mm
15:17 13.1 °C 12.3 °C 1010.7 hPa Calm   3.2 km/h 95 % 2.3 mm
15:22 13.2 °C 12.4 °C 1010.7 hPa Calm   3.2 km/h 95 % 2.3 mm
15:27 13.2 °C 12.4 °C 1010.7 hPa Calm   3.2 km/h 95 % 2.5 mm
15:32 13.2 °C 12.3 °C 1010.7 hPa SW 1.6 km/h 3.2 km/h 94 % 2.3 mm
15:37 13.2 °C 12.4 °C 1010.7 hPa Calm   3.2 km/h 95 % 2.3 mm
15:42 13.2 °C 12.4 °C 1010.7 hPa SW 1.6 km/h 3.2 km/h 95 % 2.0 mm
15:47 13.2 °C 12.3 °C 1010.7 hPa Calm   3.2 km/h 94 % 1.8 mm
15:52 13.2 °C 12.3 °C 1010.7 hPa Calm   3.2 km/h 94 % 1.5 mm
15:57 13.2 °C 12.4 °C 1010.7 hPa Calm   4.8 km/h 95 % 1.5 mm
16:02 13.2 °C 12.4 °C 1011.1 hPa Calm   4.8 km/h 95 % 1.5 mm
16:12 13.2 °C 12.4 °C 1011.1 hPa Calm   4.8 km/h 95 % 1.5 mm
16:17 13.1 °C 12.2 °C 1011.1 hPa East 1.6 km/h 6.4 km/h 94 % 1.5 mm
16:22 12.9 °C 12.0 °C 1011.1 hPa Calm   6.4 km/h 94 % 1.5 mm
16:27 13.0 °C 12.2 °C 1011.1 hPa Calm   6.4 km/h 95 % 1.8 mm
16:32 12.9 °C 12.1 °C 1011.1 hPa Calm   6.4 km/h 95 % 2.0 mm
16:37 13.0 °C 12.2 °C 1011.1 hPa Calm   6.4 km/h 95 % 2.3 mm
16:42 13.1 °C 12.3 °C 1011.1 hPa SE 4.8 km/h 6.4 km/h 95 % 2.3 mm
16:47 13.0 °C 12.2 °C 1011.1 hPa Calm   4.8 km/h 95 % 2.3 mm
16:52 13.0 °C 12.2 °C 1011.1 hPa Calm   4.8 km/h 95 % 2.3 mm
16:57 13.0 °C 12.2 °C 1011.1 hPa Calm   4.8 km/h 95 % 2.0 mm
17:02 12.9 °C 12.1 °C 1011.1 hPa Calm   4.8 km/h 95 % 2.0 mm
17:07 12.9 °C 12.1 °C 1011.1 hPa Calm   6.4 km/h 95 % 1.5 mm
17:12 12.9 °C 12.1 °C 1011.1 hPa Calm   6.4 km/h 95 % 1.5 mm
17:17 12.9 °C 12.1 °C 1011.1 hPa East 1.6 km/h 3.2 km/h 95 % 1.5 mm
17:22 13.0 °C 12.2 °C 1011.1 hPa SW 4.8 km/h 4.8 km/h 95 % 1.5 mm
17:32 13.0 °C 12.2 °C 1011.1 hPa Calm   4.8 km/h 95 % 0.8 mm
17:37 13.0 °C 12.2 °C 1011.1 hPa South 1.6 km/h 4.8 km/h 95 % 1.5 mm
17:42 12.9 °C 12.1 °C 1011.1 hPa Calm   4.8 km/h 95 % 1.8 mm
17:57 12.8 °C 12.0 °C 1011.1 hPa Calm   4.8 km/h 95 % 2.0 mm
18:02 12.9 °C 12.1 °C 1011.1 hPa Calm   4.8 km/h 95 % 1.8 mm
18:12 12.9 °C 12.1 °C 1011.1 hPa Calm   1.6 km/h 95 % 2.3 mm
18:17 12.9 °C 12.1 °C 1011.1 hPa Calm   3.2 km/h 95 % 2.3 mm
18:22 12.9 °C 12.1 °C 1011.1 hPa Calm   3.2 km/h 95 % 2.0 mm
18:27 13.0 °C 12.2 °C 1011.1 hPa Calm   3.2 km/h 95 % 2.0 mm
18:32 13.0 °C 12.2 °C 1011.1 hPa Calm   3.2 km/h 95 % 2.3 mm
18:37 13.1 °C 12.3 °C 1011.1 hPa Calm   3.2 km/h 95 % 2.3 mm
18:42 13.1 °C 12.3 °C 1011.4 hPa Calm   3.2 km/h 95 % 1.5 mm
18:47 13.2 °C 12.4 °C 1011.4 hPa Calm   3.2 km/h 95 % 1.5 mm
18:52 13.2 °C 12.4 °C 1011.4 hPa Calm   3.2 km/h 95 % 1.5 mm
18:57 13.1 °C 12.3 °C 1011.4 hPa SW 1.6 km/h 3.2 km/h 95 % 1.5 mm
19:02 13.0 °C 12.2 °C 1011.4 hPa Calm   3.2 km/h 95 % 1.3 mm
19:07 12.9 °C 12.1 °C 1011.4 hPa Calm   3.2 km/h 95 % 1.0 mm
19:12 13.0 °C 12.2 °C 1011.4 hPa Calm   3.2 km/h 95 % 1.0 mm
19:17 13.1 °C 12.3 °C 1011.4 hPa Calm   3.2 km/h 95 % 1.0 mm
19:22 13.0 °C 12.2 °C 1011.4 hPa Calm   3.2 km/h 95 % 0.8 mm
19:32 12.8 °C 12.0 °C 1011.7 hPa ESE 1.6 km/h 1.6 km/h 95 % 0.5 mm
19:37 12.8 °C 12.0 °C 1011.7 hPa Calm   3.2 km/h 95 % 0.3 mm
19:42 12.7 °C 11.9 °C 1011.7 hPa Calm   3.2 km/h 95 % 0.3 mm
19:47 12.7 °C 11.9 °C 1011.7 hPa Calm   1.6 km/h 95 % 0.3 mm
19:57 12.6 °C 11.8 °C 1011.7 hPa SE 1.6 km/h 3.2 km/h 95 % 0.5 mm
20:02 12.5 °C 11.7 °C 1011.7 hPa Calm   3.2 km/h 95 % 0.5 mm
20:12 12.4 °C 11.6 °C 1012.1 hPa Calm   4.8 km/h 95 % 0.5 mm
20:17 12.4 °C 11.6 °C 1012.1 hPa Calm   3.2 km/h 95 % 0.5 mm
20:22 12.4 °C 11.8 °C 1012.1 hPa Calm   3.2 km/h 96 % 0.8 mm
20:27 12.4 °C 11.8 °C 1012.1 hPa Calm   3.2 km/h 96 % 0.8 mm
20:32 12.4 °C 11.8 °C 1012.1 hPa Calm   3.2 km/h 96 % 0.8 mm
20:37 12.3 °C 11.7 °C 1012.1 hPa Calm   3.2 km/h 96 % 0.5 mm
20:42 12.3 °C 11.7 °C 1012.1 hPa Calm   3.2 km/h 96 % 0.5 mm
20:47 12.3 °C 11.7 °C 1012.1 hPa Calm     96 % 0.8 mm
20:52 12.3 °C 11.7 °C 1012.1 hPa Calm     96 % 0.5 mm
21:02 12.3 °C 11.7 °C 1012.1 hPa Calm     96 % 0.5 mm
21:07 12.2 °C 11.6 °C 1012.4 hPa Calm   1.6 km/h 96 % 0.5 mm
21:12 12.2 °C 11.6 °C 1012.4 hPa Calm   1.6 km/h 96 % 0.5 mm
21:17 12.2 °C 11.6 °C 1012.4 hPa Calm   1.6 km/h 96 % 0.8 mm
21:22 12.2 °C 11.6 °C 1012.4 hPa Calm   1.6 km/h 96 % 0.5 mm
21:32 12.2 °C 11.6 °C 1012.4 hPa Calm   1.6 km/h 96 % 0.5 mm
21:37 12.2 °C 11.6 °C 1012.4 hPa Calm   1.6 km/h 96 % 0.5 mm
21:42 12.1 °C 11.5 °C 1012.4 hPa Calm   1.6 km/h 96 % 0.5 mm
21:47 12.2 °C 11.6 °C 1012.4 hPa Calm   3.2 km/h 96 % 0.5 mm
21:52 12.1 °C 11.5 °C 1012.4 hPa Calm   3.2 km/h 96 % 0.8 mm
21:57 12.1 °C 11.5 °C 1012.8 hPa Calm   1.6 km/h 96 % 1.3 mm
22:02 12.1 °C 11.5 °C 1012.8 hPa WSW 1.6 km/h 1.6 km/h 96 % 1.0 mm
22:17 12.1 °C 11.6 °C 1012.8 hPa Calm   1.6 km/h 97 % 1.0 mm
22:22 12.1 °C 11.6 °C 1012.8 hPa Calm   1.6 km/h 97 % 1.0 mm
22:27 12.0 °C 11.5 °C 1012.8 hPa Calm   1.6 km/h 97 % 1.3 mm
22:32 12.0 °C 11.5 °C 1012.8 hPa Calm   1.6 km/h 97 % 1.3 mm
22:37 12.1 °C 11.6 °C 1012.8 hPa Calm   3.2 km/h 97 % 1.3 mm
22:42 12.1 °C 11.6 °C 1013.1 hPa Calm   1.6 km/h 97 % 1.3 mm
22:47 12.1 °C 11.6 °C 1013.1 hPa Calm   1.6 km/h 97 % 1.0 mm
22:52 12.1 °C 11.6 °C 1013.1 hPa Calm   1.6 km/h 97 % 0.5 mm
22:57 12.1 °C 11.6 °C 1013.1 hPa Calm   1.6 km/h 97 % 0.5 mm
23:02 12.1 °C 11.6 °C 1013.1 hPa Calm   1.6 km/h 97 % 0.5 mm
23:07 12.1 °C 11.6 °C 1013.1 hPa Calm   1.6 km/h 97 % 0.5 mm
23:12 12.1 °C 11.6 °C 1013.1 hPa Calm   1.6 km/h 97 % 0.3 mm
23:17 12.1 °C 11.6 °C 1013.1 hPa Calm   1.6 km/h 97 % 0.3 mm
23:22 12.1 °C 11.6 °C 1013.1 hPa Calm   1.6 km/h 97 % 0.3 mm
23:27 12.1 °C 11.6 °C 1013.1 hPa Calm   1.6 km/h 97 % 0.0 mm
23:32 12.1 °C 11.6 °C 1013.1 hPa Calm   1.6 km/h 97 % 0.0 mm
23:37 12.1 °C 11.6 °C 1013.4 hPa Calm   1.6 km/h 97 % 0.0 mm
23:42 12.1 °C 11.6 °C 1013.4 hPa Calm   1.6 km/h 97 % 0.0 mm
23:47 12.1 °C 11.6 °C 1013.4 hPa Calm   1.6 km/h 97 % 0.0 mm
23:52 12.1 °C 11.6 °C 1013.1 hPa Calm   1.6 km/h 97 % 0.0 mm
23:57 12.1 °C 11.6 °C 1013.4 hPa Calm     97 % 0.0 mm
Meteo18
Compliments of Weather Underground - 4 mb

Script developed by  Jim McMurry - jmcmurry@mwt.net Adapted for the template by  Wim van der Kuil - Leuven-Template.eu

You find our weather info also at:

European Weather Network

Weather Underground

Equipment we use:

Weather-station
Davis Vue

Weather-program
Meteohub

Weather-server
Raspberry PI 2 B+

Provider
1 and 1

Davis Vue

Meteohub

Raspberry PI 2 B+

1 and 1